Tracking 19636 objects as of 24-May-2019
HD Live streaming from Space Station
objects crossing your sky now

GEOS 2

Track GEOS 2 now!
GEOS 2 is classified as:


NORAD ID: 10981
Int'l Code: 1978-071A
Perigee: 36,023.8 km
Apogee: 36,069.3 km
Inclination: 11.6 °
Period: 1,449.0 minutes
Semi major axis: 42417 km
RCS: 2.0304 m2 (large)
Launch date: July 14, 1978
Source: European Space Agency (ESA)
Launch site: AIR FORCE EASTERN TEST RANGE (AFETR)
aabbcc
Your satellite tracking list
Your tracking list is empty




NASA's NSSDC Master Catalog

Two Line Element Set (TLE):
1 10981U 78071A   19142.62551014 +.00000069 +00000-0 +00000-0 0  9998
2 10981 011.5681 314.8790 0005364 343.5187 026.1656 00.99376813148335
Source of the keplerian elements: AFSPC